• In Hungary
  • List of Countries
  • For 7 days
  • Water Temperature
  • Satellite Maps
  • Weather Map
  • News
  • Weather Widgets
  • user-avatar
    Login

    Hourly Weather Emona

    Today, 11 December, Monday

    Time Temperature Precipitation Wind Pressure Humidity
    00:00 +3°C° 0 mm 2 mps 764 mmHg 59%
    01:00 +3°C° 0 mm 2 mps 764 mmHg 58%
    02:00 +2°C° 0 mm 3 mps 763 mmHg 56%
    03:00 +2°C° 0 mm 3 mps 763 mmHg 55%
    04:00 +1°C° 0 mm 4 mps 763 mmHg 55%
    05:00 +1°C° 0 mm 4 mps 763 mmHg 55%
    06:00 +3°C° 0 mm 4 mps 763 mmHg 58%
    07:00 +2°C° 0 mm 5 mps 763 mmHg 61%
    08:00 +2°C° 0 mm 5 mps 763 mmHg 64%
    09:00 +3°C° 0 mm 5 mps 763 mmHg 62%
    10:00 +5°C° 0 mm 6 mps 763 mmHg 59%
    11:00 +8°C° 0 mm 7 mps 763 mmHg 56%
    12:00 +9°C° 0 mm 7 mps 763 mmHg 57%
    13:00 +10°C° 0 mm 7 mps 763 mmHg 57%
    14:00 +13°C° 0 mm 6 mps 762 mmHg 58%
    15:00 +11°C° 0 mm 6 mps 763 mmHg 63%
    16:00 +10°C° 0 mm 6 mps 763 mmHg 67%
    17:00 +10°C° 0 mm 6 mps 763 mmHg 72%
    18:00 +9°C° 0 mm 6 mps 763 mmHg 75%
    19:00 +9°C° 0 mm 6 mps 763 mmHg 79%
    20:00 +9°C° 0 mm 5 mps 763 mmHg 82%
    21:00 +8°C° 0 mm 5 mps 764 mmHg 83%
    22:00 +8°C° 0 mm 5 mps 764 mmHg 85%
    23:00 +8°C° 0 mm 5 mps 764 mmHg 86%

    Tomorrow, 12 December, Tuesday

    Time Temperature Precipitation Wind Pressure Humidity
    00:00 +8°C° 0 mm 5 mps 764 mmHg 87%
    01:00 +8°C° 0 mm 5 mps 764 mmHg 88%
    02:00 +8°C° 0 mm 5 mps 764 mmHg 89%
    03:00 +7°C° 0 mm 4 mps 764 mmHg 89%
    04:00 +7°C° 0 mm 4 mps 764 mmHg 90%
    05:00 +7°C° 0 mm 4 mps 764 mmHg 90%
    06:00 +7°C° 0 mm 4 mps 764 mmHg 90%
    07:00 +7°C° 0 mm 4 mps 764 mmHg 89%
    08:00 +7°C° 0 mm 4 mps 765 mmHg 89%
    09:00 +8°C° 0 mm 4 mps 765 mmHg 81%
    10:00 +11°C° 0 mm 4 mps 765 mmHg 73%
    11:00 +12°C° 0 mm 4 mps 765 mmHg 64%
    12:00 +13°C° 0 mm 4 mps 765 mmHg 61%
    13:00 +14°C° 0 mm 4 mps 764 mmHg 57%
    14:00 +14°C° 0 mm 4 mps 764 mmHg 54%
    15:00 +13°C° 0 mm 4 mps 764 mmHg 58%
    16:00 +12°C° 0 mm 3 mps 764 mmHg 62%
    17:00 +11°C° 0 mm 3 mps 765 mmHg 66%
    18:00 +10°C° 0 mm 2 mps 765 mmHg 67%
    19:00 +10°C° 0 mm 2 mps 765 mmHg 68%
    20:00 +9°C° 0 mm 2 mps 765 mmHg 69%
    21:00 +9°C° 0 mm 2 mps 765 mmHg 70%
    22:00 +9°C° 0 mm 2 mps 765 mmHg 71%
    23:00 +8°C° 0 mm 2 mps 765 mmHg 72%

    Day after tomorrow, 13 December, Wednesday

    Time Temperature Precipitation Wind Pressure Humidity
    00:00 +8°C° 0 mm 2 mps 765 mmHg 73%
    01:00 +8°C° 0 mm 2 mps 765 mmHg 74%
    02:00 +8°C° 0 mm 2 mps 765 mmHg 74%
    03:00 +8°C° 0 mm 2 mps 764 mmHg 75%
    04:00 +7°C° 0 mm 2 mps 764 mmHg 76%
    05:00 +7°C° 0 mm 2 mps 764 mmHg 77%
    06:00 +7°C° 0 mm 2 mps 764 mmHg 77%
    07:00 +7°C° 0 mm 2 mps 764 mmHg 78%
    08:00 +7°C° 0 mm 2 mps 764 mmHg 78%
    09:00 +9°C° 0 mm 2 mps 764 mmHg 73%
    10:00 +10°C° 0 mm 2 mps 764 mmHg 68%
    11:00 +13°C° 0 mm 2 mps 764 mmHg 62%
    12:00 +14°C° 0 mm 2 mps 764 mmHg 60%
    13:00 +15°C° 0 mm 2 mps 763 mmHg 58%
    14:00 +16°C° 0 mm 2 mps 763 mmHg 56%
    15:00 +14°C° 0 mm 2 mps 763 mmHg 61%
    16:00 +13°C° 0 mm 2 mps 763 mmHg 67%
    17:00 +12°C° 0 mm 2 mps 762 mmHg 73%
    18:00 +12°C° 0 mm 2 mps 762 mmHg 75%
    19:00 +10°C° 0 mm 2 mps 762 mmHg 77%
    20:00 +10°C° 0 mm 2 mps 762 mmHg 79%
    21:00 +10°C° 0 mm 2 mps 762 mmHg 80%
    22:00 +10°C° 0 mm 2 mps 761 mmHg 81%
    23:00 +10°C° 0 mm 2 mps 761 mmHg 83%

    14 December, Thursday

    Time Temperature Precipitation Wind Pressure Humidity
    00:00 +10°C° 0 mm 2 mps 761 mmHg 83%
    01:00 +10°C° 0 mm 2 mps 761 mmHg 84%
    02:00 +10°C° 0 mm 2 mps 761 mmHg 85%
    03:00 +10°C° 0 mm 2 mps 760 mmHg 85%
    04:00 +9°C° 0 mm 2 mps 760 mmHg 84%
    05:00 +9°C° 0 mm 2 mps 760 mmHg 84%
    06:00 +9°C° 0 mm 2 mps 760 mmHg 84%
    07:00 +9°C° 0 mm 2 mps 760 mmHg 85%
    08:00 +9°C° 0 mm 2 mps 761 mmHg 86%
    09:00 +11°C° 0.1 mm 1 mps 761 mmHg 82%
    10:00 +12°C° 0.1 mm 1 mps 761 mmHg 78%
    11:00 +13°C° 0.1 mm 1 mps 761 mmHg 74%
    12:00 +14°C° 0 mm 1 mps 761 mmHg 70%
    13:00 +14°C° 0 mm 1 mps 760 mmHg 65%
    14:00 +15°C° 0 mm 1 mps 760 mmHg 61%
    15:00 +14°C° 0 mm 1 mps 760 mmHg 65%
    16:00 +13°C° 0 mm 1 mps 760 mmHg 69%
    17:00 +12°C° 0 mm 1 mps 760 mmHg 73%
    18:00 +12°C° 0 mm 1 mps 760 mmHg 76%
    19:00 +11°C° 0 mm 1 mps 760 mmHg 79%
    20:00 +11°C° 0 mm 1 mps 760 mmHg 82%
    21:00 +10°C° 0 mm 2 mps 760 mmHg 84%
    22:00 +9°C° 0 mm 2 mps 760 mmHg 87%
    23:00 +9°C° 0 mm 2 mps 760 mmHg 90%

    15 December, Friday

    Time Temperature Precipitation Wind Pressure Humidity
    00:00 +9°C° 0 mm 2 mps 759 mmHg 90%
    01:00 +9°C° 0 mm 2 mps 759 mmHg 91%
    02:00 +9°C° 0 mm 2 mps 759 mmHg 91%
    03:00 +9°C° 0 mm 2 mps 759 mmHg 92%
    04:00 +9°C° 0 mm 2 mps 758 mmHg 92%
    05:00 +8°C° 0 mm 3 mps 758 mmHg 93%
    06:00 +8°C° 0 mm 3 mps 759 mmHg 93%
    07:00 +8°C° 0 mm 3 mps 759 mmHg 93%
    08:00 +8°C° 0 mm 3 mps 759 mmHg 94%
    09:00 +9°C° 0 mm 3 mps 759 mmHg 87%
    10:00 +11°C° 0 mm 3 mps 759 mmHg 79%
    11:00 +13°C° 0 mm 3 mps 760 mmHg 72%
    12:00 +13°C° 0 mm 3 mps 759 mmHg 69%
    13:00 +14°C° 0 mm 3 mps 759 mmHg 66%
    14:00 +16°C° 0 mm 3 mps 758 mmHg 62%
    15:00 +14°C° 0 mm 3 mps 758 mmHg 68%
    16:00 +13°C° 0 mm 4 mps 758 mmHg 74%
    17:00 +12°C° 0 mm 4 mps 758 mmHg 79%
    18:00 +12°C° 0 mm 4 mps 758 mmHg 81%
    19:00 +12°C° 0 mm 5 mps 758 mmHg 84%
    20:00 +11°C° 0 mm 6 mps 757 mmHg 86%
    21:00 +11°C° 0 mm 6 mps 757 mmHg 86%
    22:00 +11°C° 0 mm 7 mps 757 mmHg 85%
    23:00 +11°C° 0 mm 7 mps 757 mmHg 84%

    16 December, Saturday

    Time Temperature Precipitation Wind Pressure Humidity
    00:00 +11°C° 0 mm 7 mps 757 mmHg 85%
    01:00 +11°C° 0 mm 7 mps 757 mmHg 85%
    02:00 +11°C° 0 mm 8 mps 757 mmHg 85%
    03:00 +11°C° 0 mm 8 mps 756 mmHg 86%
    04:00 +11°C° 0 mm 8 mps 756 mmHg 86%
    05:00 +11°C° 0 mm 8 mps 756 mmHg 87%
    06:00 +11°C° 0 mm 8 mps 756 mmHg 87%
    07:00 +11°C° 0 mm 8 mps 756 mmHg 87%
    08:00 +11°C° 0 mm 8 mps 756 mmHg 87%
    09:00 +12°C° 0 mm 8 mps 757 mmHg 83%
    10:00 +13°C° 0 mm 8 mps 757 mmHg 78%
    11:00 +15°C° 0 mm 9 mps 757 mmHg 73%
    12:00 +16°C° 0 mm 9 mps 756 mmHg 69%
    13:00 +17°C° 0 mm 9 mps 756 mmHg 64%
    14:00 +18°C° 0 mm 9 mps 756 mmHg 60%
    15:00 +17°C° 0 mm 9 mps 756 mmHg 64%
    16:00 +16°C° 0 mm 8 mps 756 mmHg 69%
    17:00 +15°C° 0 mm 8 mps 756 mmHg 73%
    18:00 +15°C° 0 mm 8 mps 756 mmHg 76%
    19:00 +13°C° 0 mm 8 mps 756 mmHg 78%
    20:00 +13°C° 0 mm 9 mps 756 mmHg 81%
    21:00 +13°C° 0 mm 9 mps 756 mmHg 80%
    22:00 +13°C° 0 mm 9 mps 756 mmHg 80%
    23:00 +13°C° 0 mm 9 mps 756 mmHg 79%
    Show more